Location: Pabrico
(37.5827°N, 122.0063°W)
Time: 11:22:12
(UTC+00:00)

Cosmos 1805 - Pass Details

Date: 13 April 2024
Orbit: 490 x 493 km, 82.5° (Epoch: 24 May)

Event Time Altitude Azimuth Distance (km) Brightness Sun altitude
Rises 12:06:36 0° 348° (NNW) 2,574 6.9 -17.3°
Reaches altitude 10° 12:08:44 10° 345° (NNW) 1,687 5.9 -16.9°
Maximum altitude 12:12:21 59° 266° (W) 573 3.1 -16.3°
Enters shadow 12:15:08 16° 189° (S) 1,343 5.0 -15.8°
